This is the latest recevied weather packets stored in our database for station/object T10BNorth. If no packets are shown the sender has not sent any weather packets the latest 10 day(s).
| Time | Temp. | Humidity | Pressure | Rain* | Wind** | Luminosity | Snow |
|---|---|---|---|---|---|---|---|
| 1778281000 | 7.78° C | 51% | 1008.1 hPa | 0 mm | - | 33 W/m² | - |
| 1778280933 | 7.78° C | 52% | 1008.1 hPa | 0 mm | - | 42 W/m² | - |
| 1778280872 | 7.78° C | 54% | 1008.1 hPa | 0 mm | - | 49 W/m² | - |
| 1778280813 | 7.78° C | 52% | 1008.1 hPa | 0 mm | - | 58 W/m² | - |
| 1778280752 | 7.78° C | 51% | 1008.1 hPa | 0 mm | - | 65 W/m² | - |
| 1778280695 | 7.78° C | 52% | 1008.1 hPa | 0 mm | - | 76 W/m² | - |
| 1778280619 | 7.78° C | 52% | 1008.1 hPa | 0 mm | - | 79 W/m² | - |
| 1778280555 | 7.78° C | 52% | 1008.1 hPa | 0 mm | - | 81 W/m² | - |
| 1778280497 | 7.78° C | 51% | 1008.1 hPa | 0 mm | - | 79 W/m² | - |
| 1778280435 | 7.78° C | 52% | 1008.1 hPa | 0 mm | - | 77 W/m² | - |
| 1778280380 | 7.78° C | 56% | 1008 hPa | 0 mm | - | 69 W/m² | - |
| 1778280311 | 7.78° C | 54% | 1008.1 hPa | 0 mm | - | 65 W/m² | - |
| 1778280252 | 7.78° C | 53% | 1008 hPa | 0 mm | - | 60 W/m² | - |
| 1778280193 | 7.78° C | 52% | 1008 hPa | 0 mm | - | 58 W/m² | - |
| 1778280131 | 7.78° C | 52% | 1008 hPa | 0 mm | - | 53 W/m² | - |
| 1778280074 | 7.78° C | 52% | 1007.9 hPa | 0 mm | - | 40 W/m² | - |
| 1778280007 | 8.33° C | 51% | 1008 hPa | 0 mm | - | 37 W/m² | - |
| 1778279949 | 8.33° C | 51% | 1007.9 hPa | 0 mm | - | 35 W/m² | - |
| 1778279887 | 8.33° C | 52% | 1007.9 hPa | 0 mm | - | 35 W/m² | - |
| 1778279827 | 8.33° C | 52% | 1008 hPa | 0 mm | - | 33 W/m² | - |
| 1778279768 | 8.33° C | 54% | 1008 hPa | 0 mm | - | 33 W/m² | - |
| 1778279697 | 8.33° C | 50% | 1008 hPa | 0 mm | - | 35 W/m² | - |
| 1778279637 | 8.33° C | 53% | 1008 hPa | 0 mm | - | 37 W/m² | - |
| 1778279577 | 8.33° C | 52% | 1008 hPa | 0 mm | - | 37 W/m² | - |
| 1778279539 | 8.33° C | 51% | 1008 hPa | 0 mm | - | 35 W/m² | - |
* Rain latest hour (hover to see other rain measurements)
** Current wind speed in m/s (hover to see current wind gust speed)